sat.trackr.live / text

‹ back to catalog

STARLINK-36238

NORAD 68563 · 2026-070X

PAYLOAD ACTIVE UNKNOWN

§ Identity

Operator
Country
US
Launch date
2026-04-02
Launch site
AFETR
Launch vehicle
Mass (kg)
RCS (m²)

Purposes: comms

External: N2YO · Heavens-Above · Gunter

§ Orbital elements

Epoch: 2026-09-20T04:40:35.263776Z

Period
93.85 min
Inclination
53.1573°
Eccentricity
0.0001676
Mean motion
15.34395870 rev/d
Perigee alt
461.6 km
Apogee alt
463.9 km
Semi-major
6,840.9 km
B*
6.1427e-4
RAAN
174.9160°
Arg perigee
96.3856°
Mean anomaly
263.7338°
Rev number
2,639

§ Raw data

STARLINK-362381 68563U 26070X   26263.19485259  .00020432  00000+0  61427-3 0  99982 68563  53.1573 174.9160 0001676  96.3856 263.7338 15.34395870 26396

JSON: /api/v1/satellites/68563 · /tle

For live sub-satellite position, see the globe view (requires WebGL).

§ Visibility from observer

Set your observer location to see the next 7 days of passes ≥ 10°. The values pass through the URL so the page stays shareable.

No JS? Fill the form by hand. The geolocation button needs JavaScript.